Hourly Data Report for October 23, 2016

All times are specified in Local Standard Time (LST). Add 1 hour to adjust for Daylight Saving Time where and when it is observed.

GJOA HAVEN A
NUNAVUT

68°38'08.000" N
95°51'01.000" W
46.90 m
2302337
71597
YHK

Download Data

Hourly Data (October 2016)
Hourly Data Report for October 23, 2016
Temp Definition
°C
Dew Point Temp Definition
°C
Rel Hum Definition
%
Wind Dir Definition
10's deg

Wind Spd Definition
km/h
Visibility Definition
km
Stn Press Definition
kPa
Hmdx Definition


Wind Chill Definition


Weather Definition


TIME
00:00 Legend Double Dagger -12.1 -13.0 93 16 17 16.1 102.59   -20 LegendNANA
01:00 Legend Double Dagger -12.2 -13.1 93 17 17 16.1 102.60   -20 LegendNANA
02:00 Legend Double Dagger -12.3 -13.2 93 17 15 16.1 102.62   -20 LegendNANA
03:00 Legend Double Dagger -11.7 -12.5 94 17 17 16.1 102.64   -19 LegendNANA
04:00 Legend Double Dagger -10.7 -11.6 93 17 13 16.1 102.67   -17 LegendNANA
05:00 Legend Double Dagger -10.7 -11.8 92 18 15 16.1 102.69   -18 Snow
06:00 Legend Double Dagger -10.0 -11.2 91 17 21 16.1 102.68   -18 Snow
07:00 Legend Double Dagger -11.0 -12.3 90 16 18 16.1 102.68   -19 LegendNANA
08:00 Legend Double Dagger -10.9 -12.2 91 16 21 16.1 102.68   -19 LegendNANA
09:00 Legend Double Dagger -10.0 -11.6 88 18 17 16.1 102.72   -17 LegendNANA
10:00 Legend Double Dagger -9.4 -10.9 89 17 18 16.1 102.74   -17 LegendNANA
11:00 Legend Double Dagger -8.9 -10.5 88 18 21 16.1 102.73   -17 LegendNANA
12:00 Legend Double Dagger -8.7 -10.3 89 18 18 16.1 102.74   -16 LegendNANA
13:00 Legend Double Dagger -9.3 -10.5 91 18 18 16.1 102.76   -17 LegendNANA
14:00 Legend Double Dagger -7.3 -9.0 88 21 21 16.1 102.77   -15 LegendNANA
15:00 Legend Double Dagger -7.4 -9.2 87 21 17 16.1 102.78   -14 LegendNANA
16:00 Legend Double Dagger -7.7 -9.5 87 21 21 16.1 102.78   -15 LegendNANA
17:00 Legend Double Dagger -7.5 -9.0 89 19 11 16.1 102.80   -13 LegendNANA
18:00 Legend Double Dagger -6.9 -8.1 91 20 17 16.1 102.80   -13 LegendNANA
19:00 Legend Double Dagger -6.6 -7.7 92 20 22 16.1 102.77   -14 LegendNANA
20:00 Legend Double Dagger -6.2 -6.5 98 18 18 8.1 102.76   -13 Snow
21:00 Legend Double Dagger -6.5 -6.9 97 17 15 11.3 102.75   -12 Snow
22:00 Legend Double Dagger -5.6 -6.0 97 18 21 4.8 102.72   -12 Snow
23:00 Legend Double Dagger -6.0 -6.7 95 23 17 14.5 102.71   -12 Snow

Notes on Data Quality.

Legend

  • E = Estimated
  • M = Missing
  • NA = Not Available
  • ‡ = Partner data that is not subject to review by the National Climate Archives
Date modified: